Regional Weather Roundup
Issued by NWS

Home | Current Version | Previous Version | Graphics & Text | Print | Product List | Glossary On
Versions: 1 2 3 4 5 6 7 8 9 10 11 12 13 14 15 16 17 18 19 20 21 22 23 24 25 26 27
000
ASUS45 KBOU 011610
RWRCO

WEATHER ROUNDUP FOR COLORADO
NATIONAL WEATHER SERVICE DENVER/BOULDER CO
1000 AM MDT SAT OCT 01 2016

NOTE: "FAIR" INDICATES FEW OR NO CLOUDS BELOW 12000 FEET WITH NO
SIGNIFICANT WEATHER AND/OR OBSTRUCTIONS TO VISIBILITY.

COZ001>005-013-030-031-011700-
...NORTHWEST COLORADO...

CITY           SKY/WX    TMP DP  RH WIND       PRES   REMARKS
CRAIG          FAIR      56  46  69 CALM      30.26S
HAYDEN         FAIR      52  39  62 E7        30.27S
MEEKER         FAIR      55  43  63 CALM      30.27S
MOUNT WERNER   NOT AVBL
STEAMBOAT SPGS FAIR      49  42  77 CALM      30.29S
WALDEN           N/A     48  41  76 CALM      30.36S
$$

COZ006>008-011-011700-
...WEST CENTRAL VALLEYS...

CITY           SKY/WX    TMP DP  RH WIND       PRES   REMARKS
GRAND JUNCTION FAIR      61  47  59 SE8       30.21F
MONTROSE       FAIR      58  43  57 CALM      30.28S
EAGLE          SUNNY     48  39  71 CALM      30.34F
RIFLE          FAIR      56  45  66 E5        30.26S
DELTA          NOT AVBL
NUCLA          FAIR      55  43  62 CALM      30.31F
$$

COZ017>023-064>068-011700-
...SOUTHWEST COLORADO...

CITY           SKY/WX    TMP DP  RH WIND       PRES   REMARKS
DURANGO        FAIR      55  40  56 CALM      30.31R
CORTEZ         FAIR      58  45  62 CALM      30.27S
PAGOSA SPRINGS FAIR      55  39  54 CALM      30.35F
TELLURIDE      FAIR      50  39  67 CALM      30.43S
WOLF CREEK PAS FAIR      39  36  87 SW7       30.57R
$$

COZ009-010-012-014-032>034-037-058>063-011700-
...CENTRAL COLORADO...

CITY           SKY/WX    TMP DP  RH WIND       PRES   REMARKS
ASPEN          FAIR      54  39  57 VRB3      30.33S
BUENA VISTA    FAIR      55  38  53 CALM      30.33F
COPPER MTN     FAIR      41  32  70 CALM      30.53S
BERTHOUD PASS  FAIR      36  27  69 N13G20    30.55S
COTTONWOOD PAS FAIR      54  37  54 CALM      30.42R
GUNNISON       FAIR      47  37  68 CALM      30.38S
KREMMLING      CLOUDY    37  36  93 CALM      30.38S
LEADVILLE      FAIR      49  34  56 CALM      30.41S
MONARCH PASS   PTSUNNY   37  37 100 W13       30.63R
SALIDA         FAIR      56  43  61 N5        30.38F
SUNLIGHT       FAIR      45  39  81 W3        30.51R
WILKERSON PASS FAIR      45  34  65 CALM      30.51S
$$

COZ069>075-011700-
...SAN LUIS VALLEY/SANGRE DE CRISTO MOUNTAINS...

CITY           SKY/WX    TMP DP  RH WIND       PRES   REMARKS
ALAMOSA        FAIR      51  43  74 CALM      30.34R
LA VETA PASS   FAIR      48  37  66 MISG      30.43R
SAGUACHE       FAIR      55  37  50 NW6       30.35S
$$

COZ035-036-038>040-011700-
...NORTHERN COLORADO FRONT RANGE...

CITY           SKY/WX    TMP DP  RH WIND       PRES   REMARKS
DENVER INTL AP FAIR      68  42  38 S5        30.16S
DMNS CITY PARK   N/A     68  43  41 SW3G9     30.15F
AURORA         MOSUNNY   66  42  41 SW2       30.18S
FRONT RANGE AP MOSUNNY   68  43  40 CALM      30.18S
ERIE MUNI ARPT FAIR      68  38  33 E3        30.15S
BOULDER MUN AP FAIR      68  39  34 CALM      30.15S
CENTENNIAL     FAIR      66  39  37 W6        30.18S
BROOMFIELD     MOSUNNY   66  39  37 CALM      30.18R
FORT COLLINS   FAIR      64  45  48 SE5       30.14S
LONGMONT       FAIR      67  45  45 SE5       30.16S
$$

COZ041-046-047-076>085-087-088-011700-
...PIKES PEAK/PALMER DIVIDE AND SOUTHERN FOOTHILLS...

CITY           SKY/WX    TMP DP  RH WIND       PRES   REMARKS
COLO. SPRINGS  FAIR      69  42  37 VRB3      30.21S
A. F. ACADEMY  FAIR      66  42  42 VRB3      30.22S
SCHRIEVER AFB  NOT AVBL
ELLICOTT       NOT AVBL
FALCON         FAIR      67  37  32 NE6       30.25S
FORT CARSON    NOT AVBL
LIMON          FAIR      71  44  37 NE7       30.16S
MONUMENT HILL  FAIR      63  39  42 CALM      30.26S
TRINIDAD       FAIR      67  43  41 CALM      30.19S
$$

COZ042>045-048>051-090-091-011700-
...NORTHEAST COLORADO...

CITY           SKY/WX    TMP DP  RH WIND       PRES   REMARKS
GREELEY ARPT   FAIR      64  45  48 SW3       30.14S
AKRON          FAIR      67  47  48 VRB3      30.13S
BURLINGTON     FAIR      63  48  58 CALM      30.13S
WRAY           NOT AVBL
STERLING       FAIR      63  46  55 SW3       30.10S
HOLYOKE        FAIR      68  48  49 S6        30.11S
FORT MORGAN    FAIR      63  44  50 SW6       30.13S
$$

COZ086-089-092>099-011700-
...SOUTHEAST COLORADO...

CITY           SKY/WX    TMP DP  RH WIND       PRES   REMARKS
PUEBLO         FAIR      62  48  60 CALM      30.14S
LA JUNTA       FAIR      63  48  58 VRB5      30.13S
LAMAR          FAIR      58  48  69 N5        30.10S
SPRINGFIELD      N/A     65  51  60 N10       30.11S
$$




USA.gov is the U.S. government's official web portal to all federal, state and local government web resources and services.